This is the latest recevied weather packets stored in our database for station/object WX5HOT. If no packets are shown the sender has not sent any weather packets the latest 10 day(s).
| Time | Temp. | Humidity | Pressure | Rain* | Wind** | Luminosity | Snow |
|---|---|---|---|---|---|---|---|
| 1777948156 | 18.33° C | 65% | 1059.1 hPa | 0 mm | - | 0 W/m² | - |
| 1777947854 | 18.33° C | 65% | 1059.1 hPa | 0 mm | - | 0 W/m² | - |
| 1777947551 | 18.89° C | 64% | 1059.1 hPa | 0 mm | - | 0 W/m² | - |
| 1777947247 | 18.89° C | 64% | 1059 hPa | 0 mm | - | 0 W/m² | - |
| 1777946943 | 18.89° C | 64% | 1058.8 hPa | 0 mm | - | 0 W/m² | - |
| 1777946639 | 18.89° C | 63% | 1058.9 hPa | 0 mm | - | 0 W/m² | - |
| 1777946336 | 18.89° C | 64% | 1058.9 hPa | 0 mm | - | 0 W/m² | - |
| 1777946033 | 18.89° C | 63% | 1058.7 hPa | 0 mm | - | 0 W/m² | - |
| 1777945730 | 18.89° C | 64% | 1058.5 hPa | 0 mm | - | 0 W/m² | - |
| 1777945427 | 18.89° C | 64% | 1058.7 hPa | 0 mm | - | 0 W/m² | - |
| 1777945124 | 18.89° C | 64% | 1058.8 hPa | 0 mm | - | 0 W/m² | - |
| 1777944821 | 18.89° C | 64% | 1058.5 hPa | 0 mm | - | 0 W/m² | - |
| 1777944519 | 18.89° C | 65% | 1058.4 hPa | 0 mm | - | 0 W/m² | - |
| 1777944217 | 18.89° C | 64% | 1058.4 hPa | 0 mm | - | 0 W/m² | - |
| 1777943912 | 18.89° C | 64% | 1058.7 hPa | 0 mm | - | 0 W/m² | - |
| 1777943610 | 18.89° C | 65% | 1058.7 hPa | 0 mm | - | 0 W/m² | - |
| 1777943305 | 19.44° C | 64% | 1058.5 hPa | 0 mm | - | 1 W/m² | - |
| 1777943002 | 19.44° C | 63% | 1058.8 hPa | 0 mm | - | 2 W/m² | - |
| 1777942698 | 19.44° C | 62% | 1058.6 hPa | 0 mm | - | 3 W/m² | - |
| 1777942395 | 19.44° C | 62% | 1058.4 hPa | 0 mm | - | 6 W/m² | - |
| 1777942092 | 19.44° C | 62% | 1058.6 hPa | 0 mm | - | 11 W/m² | - |
| 1777941788 | 19.44° C | 62% | 1058.6 hPa | 0 mm | - | 18 W/m² | - |
| 1777941486 | 19.44° C | 61% | 1058.5 hPa | 0 mm | - | 21 W/m² | - |
| 1777941183 | 19.44° C | 61% | 1058.7 hPa | 0 mm | - | 25 W/m² | - |
| 1777940879 | 19.44° C | 61% | 1058.7 hPa | 0 mm | - | 31 W/m² | - |
* Rain latest hour (hover to see other rain measurements)
** Current wind speed in m/s (hover to see current wind gust speed)